| time (UTC) | temp C | wind direction | speed KPH | gust KPH | rain 1hr cm | rain 24hr cm | rain mn cm | humidity % | barometer mb |
| 20260502221717 | 11 | 33 | 0.0 | 0.0 | 0.00 | 0.00 | 0.00 | 65 | 1014.2 |
| 20260502221218 | 11 | 33 | 0.0 | 0.0 | 0.00 | 0.00 | 0.00 | 65 | 1014.3 |
| 20260502220701 | 11 | 34 | 0.0 | 0.0 | 0.00 | 0.00 | 0.00 | 65 | 1014.3 |
| 20260502220210 | 11 | 34 | 0.0 | 0.0 | 0.00 | 0.00 | 0.00 | 65 | 1014.3 |
| 20260502215716 | 11 | 34 | 0.0 | 0.0 | 0.00 | 0.00 | 0.00 | 65 | 1014.3 |
| 20260502215211 | 11 | 34 | 0.0 | 0.0 | 0.00 | 0.00 | 0.00 | 64 | 1014.3 |
| 20260502214716 | 11 | 34 | 0.0 | 0.0 | 0.00 | 0.00 | 0.00 | 64 | 1014.3 |
| 20260502214202 | 12 | 33 | 0.0 | 0.0 | 0.00 | 0.00 | 0.00 | 64 | 1015.1 |
| 20260502213707 | 12 | 34 | 0.0 | 0.0 | 0.00 | 0.00 | 0.00 | 63 | 1015.1 |
| 20260502213211 | 12 | 34 | 0.0 | 0.0 | 0.00 | 0.00 | 0.00 | 62 | 1015.1 |
| 20260502212717 | 12 | 34 | 0.0 | 0.0 | 0.00 | 0.00 | 0.00 | 62 | 1015.1 |
| 20260502212158 | 12 | 34 | 0.0 | 0.0 | 0.00 | 0.00 | 0.00 | 62 | 1015.1 |
| 20260502211707 | 12 | 34 | 0.0 | 0.0 | 0.00 | 0.00 | 0.00 | 61 | 1015.1 |
| 20260502211213 | 12 | 34 | 0.0 | 0.0 | 0.00 | 0.00 | 0.00 | 61 | 1014.6 |
| 20260502210701 | 13 | 34 | 0.0 | 0.0 | 0.00 | 0.00 | 0.00 | 61 | 1014.6 |
| 20260502210210 | 13 | 39 | 0.0 | 0.0 | 0.00 | 0.00 | 0.00 | 60 | 1014.6 |
| 20260502205715 | 13 | 34 | 0.0 | 0.0 | 0.00 | 0.00 | 0.00 | 60 | 1014.6 |
| 20260502205216 | 13 | 360 | 0.0 | 0.0 | 0.00 | 0.00 | 0.00 | 60 | 1014.6 |
| 20260502204718 | 13 | 34 | 0.0 | 0.0 | 0.00 | 0.00 | 0.00 | 59 | 1014.6 |
| 20260502204159 | 13 | 34 | 0.0 | 0.0 | 0.00 | 0.00 | 0.00 | 58 | 1014.8 |
| 20260502203707 | 13 | 34 | 0.0 | 0.0 | 0.00 | 0.00 | 0.00 | 58 | 1014.8 |
| 20260502203208 | 14 | 34 | 0.0 | 0.0 | 0.00 | 0.00 | 0.00 | 58 | 1014.8 |
| 20260502202714 | 14 | 34 | 0.0 | 0.0 | 0.00 | 0.00 | 0.00 | 57 | 1015.6 |
| 20260502202201 | 14 | 34 | 0.0 | 0.0 | 0.00 | 0.00 | 0.00 | 56 | 1015.6 |
| 20260502201700 | 15 | 34 | 0.0 | 0.0 | 0.00 | 0.00 | 0.00 | 56 | 1015.6 |
| 20260502201209 | 15 | 34 | 0.0 | 0.0 | 0.00 | 0.00 | 0.00 | 56 | 1015.0 |
| 20260502200713 | 15 | 34 | 0.0 | 0.0 | 0.00 | 0.00 | 0.00 | 56 | 1015.0 |
| 20260502200203 | 15 | 34 | 0.0 | 0.0 | 0.00 | 0.00 | 0.00 | 55 | 1015.0 |
| 20260502195706 | 15 | 34 | 0.0 | 0.0 | 0.00 | 0.00 | 0.00 | 54 | 1014.9 |
| 20260502195208 | 16 | 36 | 0.0 | 0.0 | 0.00 | 0.00 | 0.00 | 54 | 1014.9 |
| 20260502194720 | 16 | 34 | 0.0 | 0.0 | 0.00 | 0.00 | 0.00 | 53 | 1014.9 |
| 20260502194214 | 16 | 34 | 0.0 | 0.0 | 0.00 | 0.00 | 0.00 | 53 | 1015.6 |
| 20260502193720 | 16 | 34 | 0.0 | 0.0 | 0.00 | 0.00 | 0.00 | 52 | 1015.6 |
| 20260502193206 | 17 | 34 | 0.0 | 0.0 | 0.00 | 0.00 | 0.00 | 52 | 1015.6 |
| 20260502192709 | 17 | 34 | 0.0 | 0.0 | 0.00 | 0.00 | 0.00 | 51 | 1015.6 |
| 20260502192208 | 17 | 34 | 0.0 | 0.0 | 0.00 | 0.00 | 0.00 | 50 | 1015.6 |
| 20260502191708 | 17 | 34 | 0.0 | 0.0 | 0.00 | 0.00 | 0.00 | 49 | 1015.6 |
| 20260502191214 | 17 | 34 | 0.0 | 0.0 | 0.00 | 0.00 | 0.00 | 48 | 1014.8 |
| 20260502190710 | 18 | 35 | 0.0 | 0.0 | 0.00 | 0.00 | 0.00 | 47 | 1014.8 |
| 20260502190202 | 18 | 34 | 0.0 | 0.0 | 0.00 | 0.00 | 0.00 | 46 | 1014.8 |
| 20260502185706 | 18 | 34 | 0.0 | 0.0 | 0.00 | 0.00 | 0.00 | 46 | 1014.7 |
| 20260502185213 | 18 | 34 | 0.0 | 0.0 | 0.00 | 0.00 | 0.00 | 45 | 1014.7 |
| 20260502184706 | 19 | 35 | 0.0 | 0.0 | 0.00 | 0.00 | 0.00 | 45 | 1014.7 |
| 20260502184213 | 20 | 34 | 0.0 | 0.0 | 0.00 | 0.00 | 0.00 | 44 | 1015.3 |
| 20260502183658 | 20 | 360 | 0.0 | 0.0 | 0.00 | 0.00 | 0.00 | 43 | 1015.3 |
| 20260502183207 | 20 | 34 | 0.0 | 0.0 | 0.00 | 0.00 | 0.00 | 43 | 1015.3 |
| 20260502182703 | 20 | 34 | 0.0 | 0.0 | 0.00 | 0.00 | 0.00 | 42 | 1014.3 |
| 20260502182209 | 20 | 34 | 0.0 | 0.0 | 0.00 | 0.00 | 0.00 | 42 | 1014.3 |
| 20260502181717 | 20 | 34 | 0.0 | 0.0 | 0.00 | 0.00 | 0.00 | 41 | 1014.3 |
| 20260502181220 | 20 | 34 | 0.0 | 0.0 | 0.00 | 0.00 | 0.00 | 41 | 1014.8 |
| 20260502180706 | 20 | 34 | 0.0 | 0.0 | 0.00 | 0.00 | 0.00 | 41 | 1014.8 |
| 20260502180212 | 20 | 34 | 0.0 | 0.0 | 0.00 | 0.00 | 0.00 | 41 | 1014.8 |
| 20260502170212 | 22 | 55 | 0.0 | 0.0 | 0.00 | 0.00 | 0.00 | 35 | 1014.5 |
| 20260502164210 | 23 | 5 | 0.0 | 0.0 | 0.00 | 0.00 | 0.00 | 34 | 1014.8 |
| 20260502163712 | 23 | 343 | 0.0 | 0.0 | 0.00 | 0.00 | 0.00 | 35 | 1014.8 |
| 20260502163215 | 23 | 346 | 0.0 | 0.0 | 0.00 | 0.00 | 0.00 | 34 | 1014.8 |
| 20260502162717 | 23 | 360 | 0.0 | 0.0 | 0.00 | 0.00 | 0.00 | 34 | 1015.7 |
| 20260502162204 | 23 | 313 | 0.0 | 0.0 | 0.00 | 0.00 | 0.00 | 33 | 1015.7 |
| 20260502161709 | 23 | 300 | 0.0 | 0.0 | 0.00 | 0.00 | 0.00 | 33 | 1015.7 |
| 20260502161211 | 23 | 300 | 0.0 | 0.0 | 0.00 | 0.00 | 0.00 | 33 | 1015.2 |
| 20260502160716 | 23 | 360 | 0.0 | 0.0 | 0.00 | 0.00 | 0.00 | 34 | 1015.2 |
| 20260502160220 | 23 | 290 | 0.0 | 0.0 | 0.00 | 0.00 | 0.00 | 32 | 1015.2 |
| 20260502152220 | 25 | 19 | 0.0 | 0.0 | 0.00 | 0.00 | 0.00 | 30 | 1016.1 |
| 20260502151706 | 25 | 36 | 1.6 | 0.0 | 0.00 | 0.00 | 0.00 | 29 | 1016.1 |
| 20260502151212 | 25 | 283 | 3.2 | 0.0 | 0.00 | 0.00 | 0.00 | 30 | 1016.3 |
| 20260502150712 | 25 | 288 | 3.2 | 0.0 | 0.00 | 0.00 | 0.00 | 28 | 1016.3 |
| 20260502150203 | 25 | 292 | 3.2 | 0.0 | 0.00 | 0.00 | 0.00 | 31 | 1016.3 |
| 20260502130702 | 23 | 24 | 0.0 | 0.0 | 0.00 | 0.00 | 0.00 | 33 | 1017.9 |
| 20260502130213 | 23 | 351 | 0.0 | 0.0 | 0.00 | 0.00 | 0.00 | 35 | 1017.9 |
| 20260502123712 | 23 | 293 | 1.6 | 0.0 | 0.00 | 0.00 | 0.00 | 35 | 1018.2 |
| 20260502123216 | 23 | 277 | 1.6 | 0.0 | 0.00 | 0.00 | 0.00 | 33 | 1018.2 |
| 20260502122705 | 23 | 360 | 3.2 | 0.0 | 0.00 | 0.00 | 0.00 | 31 | 1018.0 |
| 20260502122211 | 24 | 281 | 3.2 | 0.0 | 0.00 | 0.00 | 0.00 | 35 | 1018.0 |
| 20260502121713 | 24 | 227 | 1.6 | 0.0 | 0.00 | 0.00 | 0.00 | 32 | 1018.0 |
| 20260502121206 | 24 | 178 | 3.2 | 0.0 | 0.00 | 0.00 | 0.00 | 31 | 1018.1 |
| 20260502120700 | 23 | 287 | 1.6 | 0.0 | 0.00 | 0.00 | 0.00 | 34 | 1018.1 |
| 20260502120215 | 23 | 247 | 3.2 | 0.0 | 0.00 | 0.00 | 0.00 | 35 | 1018.1 |
| 20260502115710 | 23 | 149 | 3.2 | 0.0 | 0.00 | 0.00 | 0.00 | 35 | 1018.5 |
| 20260502115201 | 23 | 252 | 0.0 | 0.0 | 0.00 | 0.00 | 0.00 | 35 | 1018.5 |
| 20260502114706 | 23 | 175 | 0.0 | 0.0 | 0.00 | 0.00 | 0.00 | 35 | 1018.5 |
| 20260502114209 | 23 | 242 | 0.0 | 0.0 | 0.00 | 0.00 | 0.00 | 34 | 1018.6 |
| 20260502113714 | 23 | 296 | 4.8 | 0.0 | 0.00 | 0.00 | 0.00 | 36 | 1018.6 |
| 20260502113218 | 23 | 0.0 | 0.0 | 0.00 | 0.00 | 0.00 | 34 | 1018.6 | |
| 20260502112720 | 23 | 360 | 0.0 | 0.0 | 0.00 | 0.00 | 0.00 | 37 | 1018.9 |
| 20260502112210 | 23 | 298 | 0.0 | 0.0 | 0.00 | 0.00 | 0.00 | 37 | 1018.9 |
| 20260502111703 | 23 | 269 | 1.6 | 0.0 | 0.00 | 0.00 | 0.00 | 36 | 1018.9 |
| 20260502111202 | 23 | 226 | 3.2 | 0.0 | 0.00 | 0.00 | 0.00 | 36 | 1018.9 |
| 20260502110721 | 23 | 269 | 1.6 | 0.0 | 0.00 | 0.00 | 0.00 | 38 | 1018.9 |
| 20260502110207 | 23 | 296 | 1.6 | 0.0 | 0.00 | 0.00 | 0.00 | 38 | 1018.9 |
| 20260502105708 | 22 | 342 | 1.6 | 0.0 | 0.00 | 0.00 | 0.00 | 37 | 1019.0 |
| 20260502105211 | 23 | 203 | 1.6 | 0.0 | 0.00 | 0.00 | 0.00 | 34 | 1019.0 |
| 20260502104713 | 22 | 203 | 3.2 | 0.0 | 0.00 | 0.00 | 0.00 | 35 | 1019.0 |
| 20260502104219 | 23 | 360 | 3.2 | 0.0 | 0.00 | 0.00 | 0.00 | 37 | 1019.1 |
| 20260502103702 | 22 | 296 | 4.8 | 0.0 | 0.00 | 0.00 | 0.00 | 38 | 1019.1 |
| 20260502103204 | 22 | 269 | 1.6 | 0.0 | 0.00 | 0.00 | 0.00 | 36 | 1019.1 |
| 20260502102719 | 22 | 291 | 3.2 | 0.0 | 0.00 | 0.00 | 0.00 | 35 | 1019.5 |
| 20260502102208 | 22 | 276 | 4.8 | 0.0 | 0.00 | 0.00 | 0.00 | 36 | 1019.5 |
| 20260502101713 | 22 | 360 | 4.8 | 0.0 | 0.00 | 0.00 | 0.00 | 36 | 1019.5 |
| 20260502101217 | 22 | 296 | 3.2 | 0.0 | 0.00 | 0.00 | 0.00 | 34 | 1019.4 |
| 20260502100702 | 22 | 286 | 4.8 | 0.0 | 0.00 | 0.00 | 0.00 | 36 | 1019.4 |
| 20260502100221 | 22 | 360 | 3.2 | 0.0 | 0.00 | 0.00 | 0.00 | 36 | 1019.4 |
| 20260502091214 | 20 | 313 | 1.6 | 0.0 | 0.00 | 0.00 | 0.00 | 42 | 1019.9 |
| 20260502090721 | 20 | 252 | 0.0 | 0.0 | 0.00 | 0.00 | 0.00 | 42 | 1019.9 |
| 20260502090206 | 19 | 296 | 1.6 | 0.0 | 0.00 | 0.00 | 0.00 | 43 | 1019.9 |
| 20260502071221 | 13 | 141 | 0.0 | 0.0 | 0.00 | 0.00 | 0.00 | 54 | 1020.6 |
| 20260502070706 | 13 | 142 | 0.0 | 0.0 | 0.00 | 0.00 | 0.00 | 53 | 1020.6 |
| 20260502070213 | 13 | 360 | 0.0 | 0.0 | 0.00 | 0.00 | 0.00 | 59 | 1020.6 |
| 20260502065716 | 13 | 143 | 0.0 | 0.0 | 0.00 | 0.00 | 0.00 | 62 | 1020.8 |
| 20260502065218 | 12 | 142 | 0.0 | 0.0 | 0.00 | 0.00 | 0.00 | 65 | 1020.8 |
| 20260502064719 | 11 | 360 | 0.0 | 0.0 | 0.00 | 0.00 | 0.00 | 65 | 1020.8 |
| 20260502064220 | 11 | 142 | 0.0 | 0.0 | 0.00 | 0.00 | 0.00 | 64 | 1019.9 |
| 20260502063706 | 11 | 142 | 0.0 | 0.0 | 0.00 | 0.00 | 0.00 | 65 | 1019.9 |
| 20260502063209 | 11 | 142 | 0.0 | 0.0 | 0.00 | 0.00 | 0.00 | 65 | 1019.9 |
| 20260502062716 | 10 | 142 | 0.0 | 0.0 | 0.00 | 0.00 | 0.00 | 65 | 1020.0 |
| 20260502062219 | 10 | 142 | 0.0 | 0.0 | 0.00 | 0.00 | 0.00 | 67 | 1020.0 |
| 20260502061708 | 10 | 169 | 0.0 | 0.0 | 0.00 | 0.00 | 0.00 | 67 | 1020.0 |
| 20260502061209 | 9 | 168 | 0.0 | 0.0 | 0.00 | 0.00 | 0.00 | 68 | 1019.8 |
| 20260502060708 | 9 | 168 | 0.0 | 0.0 | 0.00 | 0.00 | 0.00 | 69 | 1019.8 |
| 20260502060206 | 8 | 170 | 0.0 | 0.0 | 0.00 | 0.00 | 0.00 | 69 | 1019.8 |
| 20260502055709 | 8 | 169 | 1.6 | 0.0 | 0.00 | 0.00 | 0.00 | 72 | 1020.0 |
| 20260502055215 | 7 | 171 | 1.6 | 0.0 | 0.00 | 0.00 | 0.00 | 72 | 1020.0 |
| 20260502054703 | 7 | 180 | 0.0 | 0.0 | 0.00 | 0.00 | 0.00 | 72 | 1020.0 |
| 20260502054212 | 7 | 189 | 1.6 | 0.0 | 0.00 | 0.00 | 0.00 | 73 | 1020.3 |
| 20260502053704 | 6 | 182 | 0.0 | 0.0 | 0.00 | 0.00 | 0.00 | 75 | 1020.3 |
| 20260502053205 | 6 | 165 | 0.0 | 0.0 | 0.00 | 0.00 | 0.00 | 74 | 1020.3 |
| 20260502052706 | 5 | 173 | 1.6 | 0.0 | 0.00 | 0.00 | 0.00 | 75 | 1020.4 |
| 20260502052218 | 5 | 164 | 0.0 | 0.0 | 0.00 | 0.00 | 0.00 | 76 | 1020.4 |
| 20260502051703 | 4 | 153 | 0.0 | 0.0 | 0.00 | 0.00 | 0.00 | 76 | 1020.4 |
| 20260502051203 | 4 | 152 | 0.0 | 0.0 | 0.00 | 0.00 | 0.00 | 77 | 1020.4 |
| 20260502050712 | 3 | 155 | 0.0 | 0.0 | 0.00 | 0.00 | 0.00 | 80 | 1020.4 |
| 20260502050217 | 2 | 163 | 0.0 | 0.0 | 0.00 | 0.00 | 0.00 | 81 | 1020.4 |
| 20260502045712 | 2 | 149 | 0.0 | 0.0 | 0.00 | 0.00 | 0.00 | 80 | 1020.4 |
| 20260502045215 | 2 | 149 | 0.0 | 0.0 | 0.00 | 0.00 | 0.00 | 79 | 1020.4 |
| 20260502044704 | 2 | 156 | 0.0 | 0.0 | 0.00 | 0.00 | 0.00 | 79 | 1020.4 |
| 20260502044209 | 2 | 98 | 0.0 | 0.0 | 0.00 | 0.00 | 0.00 | 79 | 1020.4 |
| 20260502043715 | 2 | 75 | 0.0 | 0.0 | 0.00 | 0.00 | 0.00 | 78 | 1020.4 |
| 20260502043202 | 2 | 76 | 0.0 | 0.0 | 0.00 | 0.00 | 0.00 | 77 | 1020.4 |
| 20260502042705 | 2 | 76 | 0.0 | 0.0 | 0.00 | 0.00 | 0.00 | 77 | 1020.4 |
| 20260502042201 | 1 | 75 | 0.0 | 0.0 | 0.00 | 0.00 | 0.00 | 76 | 1020.4 |
| 20260502041707 | 2 | 75 | 0.0 | 0.0 | 0.00 | 0.00 | 0.00 | 76 | 1020.4 |
| 20260502041210 | 2 | 75 | 0.0 | 0.0 | 0.00 | 0.00 | 0.00 | 75 | 1020.2 |
| 20260502040709 | 2 | 75 | 0.0 | 0.0 | 0.00 | 0.00 | 0.00 | 75 | 1020.2 |
| 20260502040209 | 2 | 75 | 0.0 | 0.0 | 0.00 | 0.00 | 0.00 | 75 | 1020.2 |
| 20260502035721 | 2 | 75 | 0.0 | 0.0 | 0.00 | 0.00 | 0.00 | 75 | 1020.3 |
| 20260502035220 | 2 | 360 | 0.0 | 0.0 | 0.00 | 0.00 | 0.00 | 75 | 1020.3 |
| 20260502034717 | 2 | 75 | 0.0 | 0.0 | 0.00 | 0.00 | 0.00 | 75 | 1020.3 |
| 20260502034200 | 2 | 75 | 0.0 | 0.0 | 0.00 | 0.00 | 0.00 | 75 | 1020.3 |
| 20260502033709 | 2 | 75 | 0.0 | 0.0 | 0.00 | 0.00 | 0.00 | 75 | 1020.3 |
| 20260502033214 | 2 | 75 | 0.0 | 0.0 | 0.00 | 0.00 | 0.00 | 74 | 1020.3 |
| 20260502032715 | 2 | 75 | 0.0 | 0.0 | 0.00 | 0.00 | 0.00 | 74 | 1020.2 |
| 20260502032210 | 2 | 75 | 0.0 | 0.0 | 0.00 | 0.00 | 0.00 | 74 | 1020.2 |
| 20260502031715 | 2 | 75 | 0.0 | 0.0 | 0.00 | 0.00 | 0.00 | 73 | 1020.2 |
| 20260502031213 | 2 | 360 | 0.0 | 0.0 | 0.00 | 0.00 | 0.00 | 73 | 1020.2 |
| 20260502030717 | 2 | 75 | 0.0 | 0.0 | 0.00 | 0.00 | 0.00 | 73 | 1020.2 |
| 20260502030205 | 2 | 75 | 0.0 | 0.0 | 0.00 | 0.00 | 0.00 | 73 | 1020.2 |
| 20260502025710 | 2 | 75 | 0.0 | 0.0 | 0.00 | 0.00 | 0.00 | 72 | 1020.3 |
| 20260502025221 | 2 | 75 | 0.0 | 0.0 | 0.00 | 0.00 | 0.00 | 72 | 1020.3 |
| 20260502024714 | 2 | 360 | 0.0 | 0.0 | 0.00 | 0.00 | 0.00 | 72 | 1020.3 |
| 20260502024210 | 2 | 75 | 0.0 | 0.0 | 0.00 | 0.00 | 0.00 | 72 | 1020.5 |
| 20260502023705 | 2 | 75 | 0.0 | 0.0 | 0.00 | 0.00 | 0.00 | 72 | 1020.5 |
| 20260502023219 | 3 | 75 | 0.0 | 0.0 | 0.00 | 0.00 | 0.00 | 71 | 1020.5 |
| 20260502022717 | 3 | 75 | 0.0 | 0.0 | 0.00 | 0.00 | 0.00 | 71 | 1020.4 |
| 20260502022222 | 3 | 75 | 0.0 | 0.0 | 0.00 | 0.00 | 0.00 | 71 | 1020.4 |
| 20260502021707 | 3 | 75 | 0.0 | 0.0 | 0.00 | 0.00 | 0.00 | 70 | 1020.4 |
| 20260502021215 | 3 | 75 | 0.0 | 0.0 | 0.00 | 0.00 | 0.00 | 70 | 1020.4 |
| 20260502020718 | 3 | 75 | 0.0 | 0.0 | 0.00 | 0.00 | 0.00 | 70 | 1020.4 |
| 20260502020220 | 3 | 75 | 0.0 | 0.0 | 0.00 | 0.00 | 0.00 | 69 | 1020.4 |
| 20260502015705 | 3 | 75 | 0.0 | 0.0 | 0.00 | 0.00 | 0.00 | 69 | 1020.4 |
| 20260502015221 | 3 | 360 | 0.0 | 0.0 | 0.00 | 0.00 | 0.00 | 69 | 1020.4 |
| 20260502014700 | 3 | 75 | 0.0 | 0.0 | 0.00 | 0.00 | 0.00 | 69 | 1020.4 |
| 20260502014207 | 3 | 75 | 0.0 | 0.0 | 0.00 | 0.00 | 0.00 | 68 | 1020.5 |
| 20260502013708 | 3 | 75 | 0.0 | 0.0 | 0.00 | 0.00 | 0.00 | 69 | 1020.5 |
| 20260502013214 | 3 | 75 | 0.0 | 0.0 | 0.00 | 0.00 | 0.00 | 68 | 1020.5 |
| 20260502012718 | 3 | 75 | 0.0 | 0.0 | 0.00 | 0.00 | 0.00 | 68 | 1020.4 |
| 20260502012210 | 3 | 360 | 0.0 | 0.0 | 0.00 | 0.00 | 0.00 | 67 | 1020.4 |
| 20260502011706 | 4 | 75 | 0.0 | 0.0 | 0.00 | 0.00 | 0.00 | 67 | 1020.4 |
| 20260502011211 | 4 | 75 | 0.0 | 0.0 | 0.00 | 0.00 | 0.00 | 66 | 1020.5 |
| 20260502010720 | 4 | 75 | 0.0 | 0.0 | 0.00 | 0.00 | 0.00 | 66 | 1020.5 |
| 20260502010205 | 4 | 75 | 0.0 | 0.0 | 0.00 | 0.00 | 0.00 | 66 | 1020.5 |
| 20260502005707 | 4 | 75 | 0.0 | 0.0 | 0.00 | 0.00 | 0.00 | 66 | 1020.4 |
| 20260502005213 | 4 | 75 | 0.0 | 0.0 | 0.00 | 0.00 | 0.00 | 65 | 1020.4 |
| 20260502004700 | 5 | 75 | 0.0 | 0.0 | 0.00 | 0.00 | 0.00 | 66 | 1020.4 |
| 20260502004218 | 5 | 75 | 0.0 | 0.0 | 0.00 | 0.00 | 0.00 | 66 | 1020.6 |
| 20260502003720 | 5 | 75 | 0.0 | 0.0 | 0.00 | 0.00 | 0.00 | 64 | 1020.6 |
| 20260502003205 | 5 | 78 | 0.0 | 0.0 | 0.00 | 0.00 | 0.00 | 64 | 1020.6 |
| 20260502002709 | 5 | 75 | 0.0 | 0.0 | 0.00 | 0.00 | 0.00 | 64 | 1020.8 |
| 20260502002211 | 5 | 75 | 0.0 | 0.0 | 0.00 | 0.00 | 0.00 | 63 | 1020.8 |
| 20260502001716 | 5 | 75 | 0.0 | 0.0 | 0.00 | 0.00 | 0.00 | 64 | 1020.8 |
| 20260502001220 | 5 | 75 | 0.0 | 0.0 | 0.00 | 0.00 | 0.00 | 63 | 1020.9 |
| 20260502000716 | 5 | 75 | 0.0 | 0.0 | 0.00 | 0.00 | 0.00 | 63 | 1020.9 |
| 20260502000218 | 5 | 75 | 0.0 | 0.0 | 0.00 | 0.00 | 0.00 | 63 | 1020.9 |
| 20260501235704 | 6 | 75 | 0.0 | 0.0 | 0.00 | 0.00 | 0.00 | 63 | 1020.9 |
| 20260501235208 | 6 | 75 | 0.0 | 0.0 | 0.00 | 0.00 | 0.00 | 62 | 1020.9 |
| 20260501234711 | 6 | 75 | 0.0 | 0.0 | 0.00 | 0.00 | 0.00 | 62 | 1020.9 |
| 20260501234221 | 6 | 75 | 0.0 | 0.0 | 0.00 | 0.00 | 0.00 | 61 | 1020.8 |
| 20260501233707 | 6 | 75 | 0.0 | 0.0 | 0.00 | 0.00 | 0.00 | 62 | 1020.8 |
| 20260501233206 | 6 | 75 | 0.0 | 0.0 | 0.00 | 0.00 | 0.00 | 61 | 1020.8 |
| 20260501232707 | 6 | 75 | 0.0 | 0.0 | 0.00 | 0.00 | 0.00 | 61 | 1020.8 |
| 20260501232203 | 6 | 75 | 0.0 | 0.0 | 0.00 | 0.00 | 0.00 | 61 | 1020.8 |
| 20260501231718 | 7 | 75 | 0.0 | 0.0 | 0.00 | 0.00 | 0.00 | 61 | 1020.8 |
| 20260501231213 | 7 | 75 | 0.0 | 0.0 | 0.00 | 0.00 | 0.00 | 60 | 1021.0 |
| 20260501230707 | 7 | 75 | 0.0 | 0.0 | 0.00 | 0.00 | 0.00 | 60 | 1021.0 |
| 20260501230209 | 7 | 75 | 0.0 | 0.0 | 0.00 | 0.00 | 0.00 | 59 | 1021.0 |
| 20260501225710 | 7 | 75 | 0.0 | 0.0 | 0.00 | 0.00 | 0.00 | 59 | 1021.0 |
| 20260501225215 | 7 | 75 | 0.0 | 0.0 | 0.00 | 0.00 | 0.00 | 59 | 1021.0 |
| 20260501224715 | 7 | 75 | 0.0 | 0.0 | 0.00 | 0.00 | 0.00 | 58 | 1021.0 |
| 20260501224205 | 7 | 75 | 0.0 | 0.0 | 0.00 | 0.00 | 0.00 | 58 | 1021.2 |
| 20260501223706 | 7 | 75 | 0.0 | 0.0 | 0.00 | 0.00 | 0.00 | 57 | 1021.2 |
| 20260501223218 | 8 | 75 | 0.0 | 0.0 | 0.00 | 0.00 | 0.00 | 57 | 1021.2 |
| 20260501222720 | 8 | 75 | 0.0 | 0.0 | 0.00 | 0.00 | 0.00 | 57 | 1021.3 |
| 20260501222224 | 8 | 83 | 0.0 | 0.0 | 0.00 | 0.00 | 0.00 | 56 | 1021.3 |